Starlink 5123

operational
NORAD ID: 53979 Int'l Des: 2022-125 Owner: SPXS Country: US Constellation: starlink
LEOCIRCULAR

About Starlink 5123

Description loading...

Live Position

Loading 3D Globe...

Upcoming Passes

Altitude History

Altitude vs Time

uPlot chart will show altitude changes over time

Two-Line Element Set

1 53979U 22125R 25303.13895561 .00001770 00000-0 12926-3 0 9994
2 53979 53.2156 85.1814 0001415 88.3970 271.7184 15.08834786169680
Epoch: Oct 30, 2025 • Age: 25 hours

Current Status

Altitude 559.3 km
Velocity 7.58 km/s
Sub-Earth Point -53.25°S, 119.96°W
Launch Date Oct 5, 2022
Age 3 years
Type internet

Technical Details

Classification Payload
Mass 305.00 kg
Dry Mass 290.00 kg
Total Mass 305.00 kg
Length 0.20 m
Diameter 2.80 m
Span 9.00 m
Shape Box + pan
Manufacturer SPXS
Bus Type Starlink
Phase Status In Orbit
Owner/State SPXS/US

Large Constellations

Loading constellations...